Time,TemperatureF,DewpointF,PressureIn,WindDirection,WindDirectionDegrees,WindSpeedMPH,WindSpeedGustMPH,Humidity,HourlyPrecipIn,Conditions,Clouds,dailyrainin,SoftwareType,DateUTC
2013-08-31 00:00:00,69.2,67.1,29.90,WNW,283,0.0,0.0,93,0.00,,,0.00,WeatherDisplay:10.37,2013-08-31 04:00:00,
2013-08-31 00:01:00,69.2,67.1,29.90,WNW,283,0.0,0.0,93,0.00,,,0.00,WeatherDisplay:10.37,2013-08-31 04:01:00,
2013-08-31 00:02:00,69.1,67.0,29.90,WNW,283,0.0,0.0,93,0.00,CLR,,0.00,WeatherDisplay:10.37,2013-08-31 04:02:00,
2013-08-31 00:07:00,69.0,66.9,29.90,WNW,283,0.0,0.0,93,0.00,,,0.00,WeatherDisplay:10.37,2013-08-31 04:07:00,
2013-08-31 00:12:00,68.8,66.7,29.90,WNW,283,0.0,0.0,93,0.00,,,0.00,WeatherDisplay:10.37,2013-08-31 04:12:00,
2013-08-31 00:17:00,68.7,66.9,29.90,WNW,283,0.0,0.0,94,0.00,,,0.00,WeatherDisplay:10.37,2013-08-31 04:17:00,
2013-08-31 00:22:00,68.7,66.9,29.90,WNW,283,0.0,0.0,94,0.00,,,0.00,WeatherDisplay:10.37,2013-08-31 04:22:00,
2013-08-31 00:27:00,68.6,66.8,29.89,WNW,283,0.0,0.0,94,0.00,,,0.00,WeatherDisplay:10.37,2013-08-31 04:27:00,
2013-08-31 00:32:00,68.6,66.8,29.89,WNW,283,0.0,0.0,94,0.00,,,0.00,WeatherDisplay:10.37,2013-08-31 04:32:00,
2013-08-31 00:37:00,68.5,66.7,29.90,WNW,283,0.0,0.0,94,0.00,,,0.00,WeatherDisplay:10.37,2013-08-31 04:37:00,
2013-08-31 00:42:00,68.6,67.1,29.90,WNW,283,0.0,0.0,95,0.00,,,0.00,WeatherDisplay:10.37,2013-08-31 04:42:00,
2013-08-31 00:47:00,68.7,67.2,29.89,WNW,283,0.0,0.1,95,0.00,,,0.00,WeatherDisplay:10.37,2013-08-31 04:47:00,
2013-08-31 00:52:00,68.8,67.0,29.90,WNW,283,0.0,0.0,94,0.00,,,0.00,WeatherDisplay:10.37,2013-08-31 04:52:00,
2013-08-31 00:57:00,68.8,67.0,29.90,WNW,283,0.0,0.0,94,0.00,,,0.00,WeatherDisplay:10.37,2013-08-31 04:57:00,
2013-08-31 01:03:00,68.9,67.4,29.90,WNW,284,1.2,0.0,95,0.00,,,0.00,WeatherDisplay:10.37,2013-08-31 05:03:00,
2013-08-31 01:08:00,69.0,67.5,29.90,WSW,242,1.2,1.2,95,0.00,,,0.00,WeatherDisplay:10.37,2013-08-31 05:08:00,
2013-08-31 01:13:00,69.2,67.4,29.90,WSW,238,1.2,1.2,94,0.00,,,0.00,WeatherDisplay:10.37,2013-08-31 05:13:00,
2013-08-31 01:18:00,69.4,67.6,29.90,WSW,240,1.2,0.0,94,0.00,,,0.00,WeatherDisplay:10.37,2013-08-31 05:18:00,
2013-08-31 01:23:00,69.4,67.6,29.89,WSW,240,0.0,0.0,94,0.00,,,0.00,WeatherDisplay:10.37,2013-08-31 05:23:00,
2013-08-31 01:28:00,69.3,67.5,29.89,WSW,241,0.0,0.0,94,0.00,,,0.00,WeatherDisplay:10.37,2013-08-31 05:28:00,
2013-08-31 01:33:00,69.1,67.0,29.89,WSW,241,0.0,0.0,93,0.00,,,0.00,WeatherDisplay:10.37,2013-08-31 05:33:00,
2013-08-31 01:38:00,68.9,67.1,29.89,WSW,240,0.0,0.0,94,0.00,,,0.00,WeatherDisplay:10.37,2013-08-31 05:38:00,
2013-08-31 01:43:00,68.6,66.8,29.89,WSW,240,0.0,0.0,94,0.00,,,0.00,WeatherDisplay:10.37,2013-08-31 05:43:00,
2013-08-31 01:48:00,68.5,66.7,29.89,WSW,240,0.0,0.0,94,0.00,,,0.00,WeatherDisplay:10.37,2013-08-31 05:48:00,
2013-08-31 01:53:00,68.4,66.9,29.89,WSW,240,1.2,0.0,95,0.00,,,0.00,WeatherDisplay:10.37,2013-08-31 05:53:00,
2013-08-31 01:58:00,68.4,66.9,29.89,WSW,241,0.0,0.0,95,0.00,,,0.00,WeatherDisplay:10.37,2013-08-31 05:58:00,
2013-08-31 02:03:00,68.3,66.8,29.89,WSW,240,0.0,0.0,95,0.00,,,0.00,WeatherDisplay:10.37,2013-08-31 06:03:00,
2013-08-31 02:08:00,68.3,66.8,29.90,WSW,240,0.0,0.0,95,0.00,,,0.00,WeatherDisplay:10.37,2013-08-31 06:08:00,
2013-08-31 02:13:00,68.2,66.7,29.90,WSW,240,0.0,0.0,95,0.00,,,0.00,WeatherDisplay:10.37,2013-08-31 06:13:00,
2013-08-31 02:18:00,68.1,66.6,29.89,WSW,240,0.0,0.0,95,0.00,,,0.00,WeatherDisplay:10.37,2013-08-31 06:18:00,
2013-08-31 02:23:00,68.0,66.5,29.90,WSW,240,0.0,0.0,95,0.00,,,0.00,WeatherDisplay:10.37,2013-08-31 06:23:00,
2013-08-31 02:28:00,67.8,66.3,29.90,WSW,240,0.0,0.0,95,0.00,,,0.00,WeatherDisplay:10.37,2013-08-31 06:28:00,
2013-08-31 02:33:00,67.9,66.7,29.90,WSW,241,0.0,0.0,96,0.00,,,0.00,WeatherDisplay:10.37,2013-08-31 06:33:00,
2013-08-31 02:38:00,68.1,66.9,29.89,WSW,240,0.0,0.0,96,0.00,,,0.00,WeatherDisplay:10.37,2013-08-31 06:38:00,
2013-08-31 02:43:00,68.2,67.0,29.89,WSW,240,0.0,0.0,96,0.00,,,0.00,WeatherDisplay:10.37,2013-08-31 06:43:00,
2013-08-31 02:48:00,68.4,67.2,29.90,WSW,240,0.0,0.0,96,0.00,,,0.00,WeatherDisplay:10.37,2013-08-31 06:48:00,
2013-08-31 02:53:00,68.6,67.4,29.89,SW,218,2.3,2.3,96,0.02,RA,,0.03,WeatherDisplay:10.37,2013-08-31 06:53:00,
2013-08-31 02:58:00,68.8,67.6,29.90,West,281,2.3,2.3,96,0.06,RA,,0.06,WeatherDisplay:10.37,2013-08-31 06:58:00,
2013-08-31 03:03:00,68.9,67.7,29.89,WNW,282,1.2,1.2,96,0.08,RA,,0.08,WeatherDisplay:10.37,2013-08-31 07:03:00,
2013-08-31 03:08:00,68.8,67.6,29.89,WNW,283,1.2,0.0,96,0.13,RA,,0.14,WeatherDisplay:10.37,2013-08-31 07:08:00,
2013-08-31 03:13:00,68.8,67.6,29.89,WSW,252,1.2,0.0,96,0.22,RA,,0.22,WeatherDisplay:10.37,2013-08-31 07:13:00,
2013-08-31 03:18:00,69.0,68.1,29.89,WSW,258,1.2,0.0,97,0.24,RA,,0.24,WeatherDisplay:10.37,2013-08-31 07:18:00,
2013-08-31 03:23:00,69.0,68.1,29.89,WSW,258,0.0,0.0,97,0.24,RA,,0.24,WeatherDisplay:10.37,2013-08-31 07:23:00,
2013-08-31 03:28:00,69.1,68.2,29.88,West,260,0.0,0.0,97,0.24,,,0.24,WeatherDisplay:10.37,2013-08-31 07:28:00,
2013-08-31 03:33:00,69.1,68.2,29.88,WSW,258,0.0,0.0,97,0.24,,,0.24,WeatherDisplay:10.37,2013-08-31 07:33:00,
2013-08-31 03:38:00,69.1,68.2,29.88,WSW,258,0.0,0.0,97,0.24,,,0.24,WeatherDisplay:10.37,2013-08-31 07:38:00,
2013-08-31 03:43:00,69.2,68.3,29.89,WSW,258,0.0,0.0,97,0.24,,,0.24,WeatherDisplay:10.37,2013-08-31 07:43:00,
2013-08-31 03:48:00,69.3,68.4,29.89,West,259,0.0,0.0,97,0.24,,,0.24,WeatherDisplay:10.37,2013-08-31 07:48:00,
2013-08-31 03:53:00,69.4,68.8,29.89,West,260,1.0,0.0,98,0.22,,,0.24,WeatherDisplay:10.37,2013-08-31 07:53:00,
2013-08-31 03:58:00,69.4,68.5,29.89,WSW,258,0.0,0.0,97,0.18,,,0.24,WeatherDisplay:10.37,2013-08-31 07:58:00,
2013-08-31 04:03:00,69.4,68.5,29.89,WSW,258,0.0,0.0,97,0.16,,,0.24,WeatherDisplay:10.37,2013-08-31 08:03:00,
2013-08-31 04:08:00,69.4,68.8,29.89,West,259,0.0,0.0,98,0.11,,,0.24,WeatherDisplay:10.37,2013-08-31 08:08:00,
2013-08-31 04:13:00,69.5,68.9,29.89,WSW,258,0.0,0.0,98,0.02,,,0.24,WeatherDisplay:10.37,2013-08-31 08:13:00,
2013-08-31 04:18:00,69.4,68.8,29.89,West,260,1.2,0.0,98,0.00,,,0.24,WeatherDisplay:10.37,2013-08-31 08:18:00,
2013-08-31 04:23:00,69.4,68.8,29.89,West,260,0.0,0.0,98,0.00,,,0.24,WeatherDisplay:10.37,2013-08-31 08:23:00,
2013-08-31 04:28:00,69.4,68.8,29.89,West,260,1.2,1.2,98,0.00,,,0.24,WeatherDisplay:10.37,2013-08-31 08:28:00,
2013-08-31 04:33:00,69.4,68.8,29.89,West,260,0.0,0.0,98,0.00,,,0.24,WeatherDisplay:10.37,2013-08-31 08:33:00,
2013-08-31 04:38:00,69.5,68.9,29.89,WNW,302,3.0,3.0,98,0.00,,,0.24,WeatherDisplay:10.37,2013-08-31 08:38:00,
2013-08-31 04:43:00,69.6,69.0,29.89,WNW,288,2.3,2.3,98,0.00,,,0.24,WeatherDisplay:10.37,2013-08-31 08:43:00,
2013-08-31 04:48:00,69.7,69.1,29.89,SW,234,1.2,1.2,98,0.00,,,0.24,WeatherDisplay:10.37,2013-08-31 08:48:00,
2013-08-31 04:53:00,69.7,69.1,29.89,WNW,303,1.2,0.0,98,0.00,,,0.24,WeatherDisplay:10.37,2013-08-31 08:53:00,
2013-08-31 04:58:00,69.6,68.7,29.88,WNW,303,1.2,0.0,97,0.00,,,0.24,WeatherDisplay:10.37,2013-08-31 08:58:00,
2013-08-31 05:03:00,69.6,68.7,29.88,NW,304,0.0,0.0,97,0.00,,,0.24,WeatherDisplay:10.37,2013-08-31 09:03:00,
2013-08-31 05:08:00,69.5,68.6,29.88,WNW,303,0.0,0.0,97,0.00,,,0.24,WeatherDisplay:10.37,2013-08-31 09:08:00,
2013-08-31 05:13:00,69.4,68.5,29.88,NW,304,0.0,0.0,97,0.00,,,0.24,WeatherDisplay:10.37,2013-08-31 09:13:00,
2013-08-31 05:18:00,69.5,68.9,29.89,WNW,303,1.2,0.0,98,0.00,,,0.24,WeatherDisplay:10.37,2013-08-31 09:18:00,
2013-08-31 05:23:00,69.4,68.8,29.89,ESE,116,4.0,4.0,98,0.00,,,0.24,WeatherDisplay:10.37,2013-08-31 09:23:00,
2013-08-31 05:28:00,69.4,68.8,29.89,SE,132,2.3,2.3,98,0.00,,,0.24,WeatherDisplay:10.37,2013-08-31 09:28:00,
2013-08-31 05:33:00,69.4,68.5,29.89,SSE,165,1.2,0.0,97,0.00,,,0.24,WeatherDisplay:10.37,2013-08-31 09:33:00,
2013-08-31 05:38:00,69.3,68.4,29.88,SW,218,1.2,0.0,97,0.00,,,0.24,WeatherDisplay:10.37,2013-08-31 09:38:00,
2013-08-31 05:43:00,69.3,68.4,29.89,WSW,240,0.0,0.0,97,0.00,,,0.24,WeatherDisplay:10.37,2013-08-31 09:43:00,
2013-08-31 05:48:00,69.4,68.8,29.89,West,261,1.2,1.2,98,0.00,,,0.24,WeatherDisplay:10.37,2013-08-31 09:48:00,
2013-08-31 05:53:00,69.5,68.9,29.89,West,262,0.0,0.0,98,0.00,,,0.24,WeatherDisplay:10.37,2013-08-31 09:53:00,
2013-08-31 05:58:00,69.5,68.9,29.89,West,262,0.0,0.0,98,0.00,,,0.24,WeatherDisplay:10.37,2013-08-31 09:58:00,
2013-08-31 06:03:00,69.5,68.9,29.89,West,262,0.0,0.0,98,0.00,,,0.24,WeatherDisplay:10.37,2013-08-31 10:03:00,
2013-08-31 06:08:00,69.6,69.0,29.88,West,262,1.2,0.0,98,0.00,,,0.24,WeatherDisplay:10.37,2013-08-31 10:08:00,
2013-08-31 06:13:00,69.5,68.6,29.89,West,262,0.0,0.0,97,0.00,,,0.24,WeatherDisplay:10.37,2013-08-31 10:13:00,
2013-08-31 06:18:00,69.4,68.5,29.88,West,262,0.0,0.0,97,0.00,,,0.24,WeatherDisplay:10.37,2013-08-31 10:18:00,
2013-08-31 06:23:00,69.4,68.5,29.89,West,261,0.0,0.0,97,0.00,,,0.24,WeatherDisplay:10.37,2013-08-31 10:23:00,
2013-08-31 06:28:00,69.4,68.8,29.89,West,262,0.0,0.0,98,0.00,CLR,,0.24,WeatherDisplay:10.37,2013-08-31 10:28:00,
2013-08-31 06:33:00,69.4,68.8,29.89,West,262,0.0,0.0,98,0.00,CLR,,0.24,WeatherDisplay:10.37,2013-08-31 10:33:00,
2013-08-31 06:38:00,69.4,68.8,29.89,West,261,0.0,0.0,98,0.00,CLR,,0.24,WeatherDisplay:10.37,2013-08-31 10:38:00,
2013-08-31 06:43:00,69.3,68.7,29.89,West,262,0.0,0.0,98,0.00,CLR,,0.24,WeatherDisplay:10.37,2013-08-31 10:43:00,
2013-08-31 06:49:00,69.2,68.6,29.89,West,262,0.0,0.0,98,0.00,CLR,,0.24,WeatherDisplay:10.37,2013-08-31 10:49:00,
2013-08-31 06:54:00,69.2,68.6,29.89,West,261,0.0,0.0,98,0.00,CLR,,0.24,WeatherDisplay:10.37,2013-08-31 10:54:00,
2013-08-31 06:59:00,69.2,68.6,29.89,West,261,0.0,0.0,98,0.00,CLR,,0.24,WeatherDisplay:10.37,2013-08-31 10:59:00,
2013-08-31 07:04:00,69.2,68.6,29.89,West,262,0.0,0.0,98,0.00,CLR,,0.24,WeatherDisplay:10.37,2013-08-31 11:04:00,
2013-08-31 07:09:00,69.3,68.7,29.89,West,261,0.0,0.0,98,0.00,CLR,,0.24,WeatherDisplay:10.37,2013-08-31 11:09:00,
2013-08-31 07:14:00,69.3,68.7,29.89,West,262,0.0,0.0,98,0.00,CLR,,0.24,WeatherDisplay:10.37,2013-08-31 11:14:00,
2013-08-31 07:19:00,69.3,68.7,29.89,West,262,0.0,0.0,98,0.00,CLR,,0.24,WeatherDisplay:10.37,2013-08-31 11:19:00,
2013-08-31 07:24:00,69.2,68.6,29.89,West,262,0.0,0.0,98,0.00,CLR,,0.24,WeatherDisplay:10.37,2013-08-31 11:24:00,
2013-08-31 07:29:00,69.3,68.7,29.89,West,262,0.0,0.0,98,0.00,CLR,,0.24,WeatherDisplay:10.37,2013-08-31 11:29:00,
2013-08-31 07:34:00,69.3,68.7,29.90,West,262,0.0,0.0,98,0.00,CLR,,0.24,WeatherDisplay:10.37,2013-08-31 11:34:00,
2013-08-31 07:39:00,69.5,68.9,29.90,West,261,0.0,0.0,98,0.00,CLR,,0.24,WeatherDisplay:10.37,2013-08-31 11:39:00,
2013-08-31 07:44:00,69.6,69.0,29.90,West,262,0.0,0.0,98,0.00,CLR,,0.24,WeatherDisplay:10.37,2013-08-31 11:44:00,
2013-08-31 07:49:00,69.7,69.1,29.90,West,262,0.0,0.0,98,0.00,CLR,,0.24,WeatherDisplay:10.37,2013-08-31 11:49:00,
2013-08-31 07:54:00,70.0,69.4,29.90,West,262,0.0,0.0,98,0.00,CLR,,0.24,WeatherDisplay:10.37,2013-08-31 11:54:00,
2013-08-31 07:59:00,70.2,69.6,29.90,West,261,0.0,0.0,98,0.00,CLR,,0.24,WeatherDisplay:10.37,2013-08-31 11:59:00,
2013-08-31 08:04:00,70.3,69.7,29.90,West,262,0.0,0.0,98,0.00,CLR,,0.24,WeatherDisplay:10.37,2013-08-31 12:04:00,
2013-08-31 08:09:00,70.6,70.0,29.90,West,280,2.0,2.0,98,0.00,CLR,,0.24,WeatherDisplay:10.37,2013-08-31 12:09:00,
2013-08-31 08:14:00,70.8,70.2,29.91,West,280,1.2,1.2,98,0.00,CLR,,0.24,WeatherDisplay:10.37,2013-08-31 12:14:00,
2013-08-31 08:19:00,71.0,70.4,29.91,WNW,285,0.0,0.0,98,0.00,CLR,,0.24,WeatherDisplay:10.37,2013-08-31 12:19:00,
2013-08-31 08:24:00,71.1,70.5,29.91,WNW,298,2.3,2.3,98,0.00,CLR,,0.24,WeatherDisplay:10.37,2013-08-31 12:24:00,
2013-08-31 08:29:00,71.3,70.7,29.91,WNW,298,0.0,0.0,98,0.00,CLR,,0.24,WeatherDisplay:10.37,2013-08-31 12:29:00,
2013-08-31 08:34:00,71.6,71.0,29.91,WNW,298,0.0,0.0,98,0.00,CLR,,0.24,WeatherDisplay:10.37,2013-08-31 12:34:00,
2013-08-31 08:39:00,71.8,71.2,29.90,WSW,257,0.0,0.0,98,0.00,CLR,,0.24,WeatherDisplay:10.37,2013-08-31 12:39:00,
2013-08-31 08:44:00,71.9,71.0,29.90,West,265,2.3,2.3,97,0.00,CLR,,0.24,WeatherDisplay:10.37,2013-08-31 12:44:00,
2013-08-31 08:49:00,72.0,71.1,29.91,WSW,249,3.0,3.0,97,0.00,CLR,,0.24,WeatherDisplay:10.37,2013-08-31 12:49:00,
2013-08-31 08:54:00,72.1,71.2,29.91,West,269,1.2,1.2,97,0.00,CLR,,0.24,WeatherDisplay:10.37,2013-08-31 12:54:00,
2013-08-31 08:59:00,72.4,71.2,29.91,West,267,1.2,1.2,96,0.00,CLR,,0.24,WeatherDisplay:10.37,2013-08-31 12:59:00,
2013-08-31 09:04:00,72.5,71.3,29.91,West,264,2.3,2.3,96,0.00,CLR,,0.24,WeatherDisplay:10.37,2013-08-31 13:04:00,
2013-08-31 09:09:00,72.5,71.0,29.91,WSW,253,3.5,3.5,95,0.00,CLR,,0.24,WeatherDisplay:10.37,2013-08-31 13:09:00,
2013-08-31 09:14:00,72.7,71.5,29.91,West,260,2.3,2.3,96,0.00,CLR,,0.24,WeatherDisplay:10.37,2013-08-31 13:14:00,
2013-08-31 09:19:00,73.0,71.8,29.91,WSW,252,6.0,6.0,96,0.00,CLR,,0.24,WeatherDisplay:10.37,2013-08-31 13:19:00,
2013-08-31 09:24:00,73.7,72.5,29.91,West,272,3.5,3.5,96,0.00,CLR,,0.24,WeatherDisplay:10.37,2013-08-31 13:24:00,
2013-08-31 09:29:00,74.1,72.3,29.91,WSW,258,3.5,3.5,94,0.00,CLR,,0.24,WeatherDisplay:10.37,2013-08-31 13:29:00,
2013-08-31 09:34:00,74.2,72.0,29.91,West,267,5.8,5.8,93,0.00,CLR,,0.24,WeatherDisplay:10.37,2013-08-31 13:34:00,
2013-08-31 09:39:00,74.0,71.8,29.91,WSW,257,3.5,3.5,93,0.00,CLR,,0.24,WeatherDisplay:10.37,2013-08-31 13:39:00,
2013-08-31 09:44:00,73.9,71.7,29.91,SW,234,5.8,5.8,93,0.00,CLR,,0.24,WeatherDisplay:10.37,2013-08-31 13:44:00,
2013-08-31 09:49:00,73.9,71.7,29.91,WNW,300,2.3,2.3,93,0.00,CLR,,0.24,WeatherDisplay:10.37,2013-08-31 13:49:00,
2013-08-31 09:54:00,73.7,71.5,29.92,WSW,252,4.0,4.0,93,0.00,CLR,,0.24,WeatherDisplay:10.37,2013-08-31 13:54:00,
2013-08-31 09:59:00,73.6,71.4,29.92,WSW,256,3.5,3.5,93,0.00,CLR,,0.24,WeatherDisplay:10.37,2013-08-31 13:59:00,
2013-08-31 10:04:00,73.7,71.5,29.91,WSW,255,3.5,3.5,93,0.00,CLR,,0.24,WeatherDisplay:10.37,2013-08-31 14:04:00,
2013-08-31 10:09:00,73.7,71.5,29.91,SW,229,2.0,2.0,93,0.00,CLR,,0.24,WeatherDisplay:10.37,2013-08-31 14:09:00,
2013-08-31 10:14:00,73.9,71.7,29.92,WSW,255,2.3,2.3,93,0.00,CLR,,0.24,WeatherDisplay:10.37,2013-08-31 14:14:00,
2013-08-31 10:19:00,73.9,71.4,29.92,SW,234,3.5,3.5,92,0.00,CLR,,0.24,WeatherDisplay:10.37,2013-08-31 14:19:00,
2013-08-31 10:24:00,73.9,71.4,29.92,WSW,250,3.5,3.5,92,0.00,CLR,,0.24,WeatherDisplay:10.37,2013-08-31 14:24:00,
2013-08-31 10:29:00,74.0,71.8,29.91,West,280,1.2,1.2,93,0.00,CLR,,0.24,WeatherDisplay:10.37,2013-08-31 14:29:00,
2013-08-31 10:34:00,74.1,71.6,29.91,WSW,241,3.0,3.0,92,0.00,CLR,,0.24,WeatherDisplay:10.37,2013-08-31 14:34:00,
2013-08-31 10:39:00,74.0,71.5,29.91,SW,235,2.3,2.3,92,0.00,CLR,,0.24,WeatherDisplay:10.37,2013-08-31 14:39:00,
2013-08-31 10:44:00,74.0,71.5,29.91,WSW,257,1.2,1.2,92,0.00,CLR,,0.24,WeatherDisplay:10.37,2013-08-31 14:44:00,
2013-08-31 10:49:00,74.0,71.5,29.92,WSW,245,2.3,2.3,92,0.00,CLR,,0.24,WeatherDisplay:10.37,2013-08-31 14:49:00,
2013-08-31 10:54:00,73.9,71.4,29.92,WSW,245,2.3,2.3,92,0.00,CLR,,0.24,WeatherDisplay:10.37,2013-08-31 14:54:00,
2013-08-31 10:59:00,73.9,71.7,29.92,West,267,0.0,0.0,93,0.00,CLR,,0.24,WeatherDisplay:10.37,2013-08-31 14:59:00,
2013-08-31 11:04:00,73.9,71.4,29.92,WSW,255,2.3,2.3,92,0.00,CLR,,0.24,WeatherDisplay:10.37,2013-08-31 15:04:00,
2013-08-31 11:09:00,74.0,71.5,29.92,WNW,297,2.3,2.3,92,0.00,CLR,,0.24,WeatherDisplay:10.37,2013-08-31 15:09:00,
2013-08-31 11:14:00,74.0,71.5,29.92,WNW,298,0.0,0.0,92,0.06,RA,,0.30,WeatherDisplay:10.37,2013-08-31 15:14:00,
2013-08-31 11:19:00,73.8,71.6,29.92,West,260,2.3,2.3,93,0.10,RA,,0.34,WeatherDisplay:10.37,2013-08-31 15:19:00,
2013-08-31 11:24:00,73.6,71.8,29.92,WSW,251,3.5,3.5,94,0.11,RA,,0.35,WeatherDisplay:10.37,2013-08-31 15:24:00,
2013-08-31 11:29:00,73.4,71.6,29.92,West,262,2.3,2.3,94,0.11,RA,,0.35,WeatherDisplay:10.37,2013-08-31 15:29:00,
2013-08-31 11:34:00,73.6,72.1,29.92,West,262,2.3,2.3,95,0.11,CLR,,0.35,WeatherDisplay:10.37,2013-08-31 15:34:00,
2013-08-31 11:39:00,73.9,72.4,29.92,SW,234,3.5,3.5,95,0.11,CLR,,0.35,WeatherDisplay:10.37,2013-08-31 15:39:00,
2013-08-31 11:44:00,74.0,71.8,29.91,WSW,253,3.5,3.5,93,0.11,CLR,,0.35,WeatherDisplay:10.37,2013-08-31 15:44:00,
2013-08-31 11:49:00,74.2,72.4,29.91,West,270,1.2,1.2,94,0.11,CLR,,0.35,WeatherDisplay:10.37,2013-08-31 15:49:00,
2013-08-31 11:54:00,74.8,73.0,29.91,West,268,1.2,1.2,94,0.11,CLR,,0.35,WeatherDisplay:10.37,2013-08-31 15:54:00,
2013-08-31 11:59:00,75.0,72.2,29.90,SW,225,3.5,3.5,91,0.11,CLR,,0.35,WeatherDisplay:10.37,2013-08-31 15:59:00,
2013-08-31 12:04:00,75.2,72.7,29.90,WSW,257,3.5,3.5,92,0.11,CLR,,0.35,WeatherDisplay:10.37,2013-08-31 16:04:00,
2013-08-31 12:09:00,75.0,72.2,29.90,West,274,5.0,5.0,91,0.11,CLR,,0.35,WeatherDisplay:10.37,2013-08-31 16:09:00,
2013-08-31 12:14:00,75.0,72.5,29.91,West,260,1.2,0.0,92,0.05,CLR,,0.35,WeatherDisplay:10.37,2013-08-31 16:14:00,
2013-08-31 12:19:00,74.7,72.2,29.91,NW,309,3.5,3.5,92,0.02,RA,,0.36,WeatherDisplay:10.37,2013-08-31 16:19:00,
2013-08-31 12:24:00,74.3,72.1,29.91,West,281,1.2,1.2,93,0.01,RA,,0.36,WeatherDisplay:10.37,2013-08-31 16:24:00,
2013-08-31 12:29:00,74.0,71.8,29.90,WNW,283,2.3,0.0,93,0.01,CLR,,0.36,WeatherDisplay:10.37,2013-08-31 16:29:00,
2013-08-31 12:34:00,73.9,72.1,29.90,WNW,284,0.0,0.0,94,0.04,RA,,0.39,WeatherDisplay:10.37,2013-08-31 16:34:00,
2013-08-31 12:39:00,73.7,71.9,29.90,West,264,3.5,3.5,94,0.04,RA,,0.39,WeatherDisplay:10.37,2013-08-31 16:39:00,
2013-08-31 12:44:00,73.5,71.7,29.90,WSW,246,2.3,2.3,94,0.05,RA,,0.40,WeatherDisplay:10.37,2013-08-31 16:44:00,
2013-08-31 12:50:00,73.4,71.9,29.90,West,264,1.0,1.4,95,0.05,RA,,0.40,WeatherDisplay:10.37,2013-08-31 16:50:00,
2013-08-31 12:55:00,73.3,71.5,29.90,WNW,293,3.5,3.5,94,0.05,CLR,,0.40,WeatherDisplay:10.37,2013-08-31 16:55:00,
2013-08-31 13:00:00,73.3,71.5,29.90,SW,236,1.2,1.2,94,0.05,CLR,,0.40,WeatherDisplay:10.37,2013-08-31 17:00:00,
2013-08-31 13:05:00,73.3,71.8,29.90,WSW,255,0.0,0.0,95,0.05,CLR,,0.40,WeatherDisplay:10.37,2013-08-31 17:05:00,
2013-08-31 13:10:00,73.5,72.0,29.90,WSW,255,1.2,1.2,95,0.05,CLR,,0.40,WeatherDisplay:10.37,2013-08-31 17:10:00,
2013-08-31 13:15:00,73.8,72.3,29.90,SSE,166,1.0,3.0,95,0.00,CLR,,0.40,WeatherDisplay:10.37,2013-08-31 17:15:00,
2013-08-31 13:20:00,74.0,72.2,29.90,East,101,3.5,3.5,94,0.04,CLR,,0.40,WeatherDisplay:10.37,2013-08-31 17:20:00,
2013-08-31 13:25:00,73.9,72.1,29.89,ESE,105,1.0,4.0,94,0.00,CLR,,0.40,WeatherDisplay:10.37,2013-08-31 17:25:00,
2013-08-31 13:30:00,74.2,72.7,29.89,East,91,1.2,0.0,95,0.04,CLR,,0.40,WeatherDisplay:10.37,2013-08-31 17:30:00,
2013-08-31 13:35:00,74.3,72.8,29.89,WNW,299,0.0,0.0,95,0.01,CLR,,0.40,WeatherDisplay:10.37,2013-08-31 17:35:00,
2013-08-31 13:40:00,74.4,72.6,29.89,ESE,118,4.6,4.6,94,0.01,CLR,,0.40,WeatherDisplay:10.37,2013-08-31 17:40:00,
2013-08-31 13:45:00,74.4,72.9,29.88,East,96,3.5,3.5,95,0.01,RA,,0.41,WeatherDisplay:10.37,2013-08-31 17:45:00,
2013-08-31 13:50:00,74.2,72.7,29.89,East,94,3.5,3.5,95,0.02,RA,,0.42,WeatherDisplay:10.37,2013-08-31 17:50:00,
2013-08-31 13:55:00,74.1,72.6,29.90,ENE,60,3.0,5.0,95,0.00,RA,,0.42,WeatherDisplay:10.37,2013-08-31 17:55:00,
2013-08-31 14:00:00,73.1,70.0,29.89,East,81,3.0,12.0,90,0.00,CLR,,0.42,WeatherDisplay:10.37,2013-08-31 18:00:00,
2013-08-31 14:05:00,71.8,68.1,29.89,East,92,3.0,9.0,88,0.00,CLR,,0.42,WeatherDisplay:10.37,2013-08-31 18:05:00,
2013-08-31 14:10:00,70.7,67.6,29.89,ENE,70,6.9,6.9,90,0.02,CLR,,0.42,WeatherDisplay:10.37,2013-08-31 18:10:00,
2013-08-31 14:15:00,70.0,67.6,29.90,East,85,5.0,8.0,92,0.02,RA,,0.58,WeatherDisplay:10.37,2013-08-31 18:15:00,
2013-08-31 14:20:00,69.6,67.8,29.91,SE,139,6.9,6.9,94,0.28,RA,,0.70,WeatherDisplay:10.37,2013-08-31 18:20:00,
2013-08-31 14:25:00,69.7,67.9,29.91,SSE,158,0.0,9.0,94,0.01,RA,,0.76,WeatherDisplay:10.37,2013-08-31 18:25:00,
2013-08-31 14:30:00,69.7,67.9,29.91,WSW,251,3.5,3.5,94,0.39,RA,,0.79,WeatherDisplay:10.37,2013-08-31 18:30:00,
2013-08-31 14:35:00,69.6,67.8,29.91,North,351,0.0,5.0,94,0.00,RA,,0.79,WeatherDisplay:10.37,2013-08-31 18:35:00,
2013-08-31 14:40:00,69.6,68.1,29.92,NNE,23,1.0,2.0,95,0.00,CLR,,0.79,WeatherDisplay:10.37,2013-08-31 18:40:00,
2013-08-31 14:45:00,69.6,68.1,29.92,SSE,154,1.2,0.0,95,0.38,CLR,,0.79,WeatherDisplay:10.37,2013-08-31 18:45:00,
2013-08-31 14:50:00,69.6,68.1,29.93,SW,214,0.0,2.0,95,0.00,RA,,0.80,WeatherDisplay:10.37,2013-08-31 18:50:00,
2013-08-31 14:55:00,69.4,68.3,29.93,West,262,1.0,2.0,96,0.00,RA,,0.81,WeatherDisplay:10.37,2013-08-31 18:55:00,
2013-08-31 15:00:00,69.3,68.1,29.92,West,279,1.2,1.2,96,0.39,RA,,0.82,WeatherDisplay:10.37,2013-08-31 19:00:00,
2013-08-31 15:05:00,69.1,67.9,29.91,West,279,0.0,1.0,96,0.01,RA,,0.90,WeatherDisplay:10.37,2013-08-31 19:05:00,
2013-08-31 15:10:00,69.0,67.8,29.90,West,268,1.0,2.0,96,0.00,RA,,0.95,WeatherDisplay:10.37,2013-08-31 19:10:00,
2013-08-31 15:15:00,68.9,67.7,29.91,West,267,1.2,0.0,96,0.40,RA,,0.97,WeatherDisplay:10.37,2013-08-31 19:15:00,
2013-08-31 15:20:00,68.5,67.3,29.90,SW,236,2.0,4.0,96,0.00,RA,,0.97,WeatherDisplay:10.37,2013-08-31 19:20:00,
2013-08-31 15:25:00,68.3,67.1,29.89,SW,228,0.0,2.0,96,0.00,CLR,,0.97,WeatherDisplay:10.37,2013-08-31 19:25:00,
2013-08-31 15:30:00,68.1,66.9,29.89,WSW,239,2.0,5.0,96,0.00,CLR,,0.97,WeatherDisplay:10.37,2013-08-31 19:30:00,
2013-08-31 15:35:00,67.9,66.7,29.88,WSW,248,0.0,5.0,96,0.00,CLR,,0.97,WeatherDisplay:10.37,2013-08-31 19:35:00,
2013-08-31 15:40:00,67.8,66.6,29.87,SSE,151,3.5,3.5,96,0.18,CLR,,0.97,WeatherDisplay:10.37,2013-08-31 19:40:00,
2013-08-31 15:45:00,67.8,66.6,29.88,SW,227,3.5,3.5,96,0.18,CLR,,0.97,WeatherDisplay:10.37,2013-08-31 19:45:00,
2013-08-31 15:50:00,67.7,66.5,29.88,SW,236,2.0,7.0,96,0.00,CLR,,0.97,WeatherDisplay:10.37,2013-08-31 19:50:00,
2013-08-31 15:55:00,67.7,66.5,29.87,SE,130,3.5,3.5,96,0.16,CLR,,0.97,WeatherDisplay:10.37,2013-08-31 19:55:00,
2013-08-31 16:00:00,67.7,66.5,29.87,WNW,289,2.3,2.3,96,0.16,CLR,,0.97,WeatherDisplay:10.37,2013-08-31 20:00:00,
2013-08-31 16:05:00,67.8,66.6,29.87,WNW,299,3.0,5.0,96,0.00,CLR,,0.97,WeatherDisplay:10.37,2013-08-31 20:05:00,
2013-08-31 16:10:00,67.9,67.0,29.87,West,265,2.3,0.0,97,0.02,CLR,,0.97,WeatherDisplay:10.37,2013-08-31 20:10:00,
2013-08-31 16:15:00,68.2,67.3,29.86,WNW,289,1.2,1.2,97,0.01,CLR,,0.97,WeatherDisplay:10.37,2013-08-31 20:15:00,
2013-08-31 16:20:00,68.4,67.5,29.86,WNW,282,0.0,1.0,97,0.00,CLR,,0.97,WeatherDisplay:10.37,2013-08-31 20:20:00,
2013-08-31 16:25:00,68.5,67.3,29.86,West,280,1.0,2.0,96,0.00,CLR,,0.97,WeatherDisplay:10.37,2013-08-31 20:25:00,
2013-08-31 16:30:00,68.6,67.4,29.86,West,262,2.3,2.3,96,0.00,CLR,,0.97,WeatherDisplay:10.37,2013-08-31 20:30:00,
2013-08-31 16:35:00,69.0,67.8,29.87,West,272,0.0,3.0,96,0.00,CLR,,0.97,WeatherDisplay:10.37,2013-08-31 20:35:00,
2013-08-31 16:40:00,69.5,68.3,29.87,WSW,255,0.0,0.1,96,0.00,CLR,,0.97,WeatherDisplay:10.37,2013-08-31 20:40:00,
2013-08-31 16:45:00,69.8,68.0,29.87,West,264,0.0,2.0,94,0.00,CLR,,0.97,WeatherDisplay:10.37,2013-08-31 20:45:00,
2013-08-31 16:50:00,70.2,68.4,29.87,WNW,292,0.0,0.0,94,0.00,CLR,,0.97,WeatherDisplay:10.37,2013-08-31 20:50:00,
2013-08-31 16:55:00,70.7,68.6,29.87,WNW,292,1.2,0.0,93,0.00,CLR,,0.97,WeatherDisplay:10.37,2013-08-31 20:55:00,
2013-08-31 17:00:00,71.5,69.7,29.86,WNW,292,0.0,1.0,94,0.00,CLR,,0.97,WeatherDisplay:10.37,2013-08-31 21:00:00,
2013-08-31 17:05:00,72.6,69.8,29.85,ENE,61,2.3,2.3,91,0.00,CLR,,0.97,WeatherDisplay:10.37,2013-08-31 21:05:00,
2013-08-31 17:10:00,73.5,70.4,29.85,SE,129,1.2,1.4,90,0.00,CLR,,0.97,WeatherDisplay:10.37,2013-08-31 21:10:00,
2013-08-31 17:15:00,73.8,70.3,29.85,SSE,166,1.0,2.0,89,0.00,CLR,,0.97,WeatherDisplay:10.37,2013-08-31 21:15:00,
2013-08-31 17:20:00,74.6,70.8,29.85,South,190,1.0,4.0,88,0.00,CLR,,0.97,WeatherDisplay:10.37,2013-08-31 21:20:00,
2013-08-31 17:25:00,74.0,69.5,29.85,East,98,3.5,3.5,86,0.00,CLR,,0.97,WeatherDisplay:10.37,2013-08-31 21:25:00,
2013-08-31 17:30:00,73.9,69.4,29.85,SE,125,0.0,3.0,86,0.00,CLR,,0.97,WeatherDisplay:10.37,2013-08-31 21:30:00,
2013-08-31 17:35:00,74.1,69.6,29.84,ENE,62,2.3,2.3,86,0.00,CLR,,0.97,WeatherDisplay:10.37,2013-08-31 21:35:00,
2013-08-31 17:40:00,74.0,69.2,29.84,East,99,1.0,3.0,85,0.00,CLR,,0.97,WeatherDisplay:10.37,2013-08-31 21:40:00,
2013-08-31 17:45:00,74.6,70.5,29.84,NE,44,1.2,1.4,87,0.00,CLR,,0.97,WeatherDisplay:10.37,2013-08-31 21:45:00,
2013-08-31 17:50:00,74.4,68.9,29.84,NNE,30,0.0,2.0,83,0.00,CLR,,0.97,WeatherDisplay:10.37,2013-08-31 21:50:00,
2013-08-31 17:55:00,74.7,70.6,29.84,NE,38,0.0,2.0,87,0.00,CLR,,0.97,WeatherDisplay:10.37,2013-08-31 21:55:00,
2013-08-31 18:00:00,75.0,69.8,29.84,NNW,340,1.2,1.2,84,0.00,CLR,,0.97,WeatherDisplay:10.37,2013-08-31 22:00:00,
2013-08-31 18:05:00,74.8,69.6,29.85,NW,321,1.2,1.2,84,0.00,,,0.97,WeatherDisplay:10.37,2013-08-31 22:05:00,
2013-08-31 18:10:00,74.2,69.4,29.85,NW,323,0.0,1.0,85,0.00,,,0.97,WeatherDisplay:10.37,2013-08-31 22:10:00,
2013-08-31 18:15:00,73.8,69.3,29.85,NW,324,1.2,1.2,86,0.00,,,0.97,WeatherDisplay:10.37,2013-08-31 22:15:00,
2013-08-31 18:20:00,73.5,69.4,29.85,NW,323,0.0,1.0,87,0.00,,,0.97,WeatherDisplay:10.37,2013-08-31 22:20:00,
2013-08-31 18:25:00,73.5,69.4,29.85,NNW,335,0.0,1.0,87,0.00,,,0.97,WeatherDisplay:10.37,2013-08-31 22:25:00,
2013-08-31 18:30:00,73.7,69.6,29.85,NNE,22,1.2,1.2,87,0.00,,,0.97,WeatherDisplay:10.37,2013-08-31 22:30:00,
2013-08-31 18:35:00,73.7,69.2,29.85,NNE,25,3.5,3.5,86,0.00,,,0.97,WeatherDisplay:10.37,2013-08-31 22:35:00,
2013-08-31 18:40:00,73.5,69.1,29.85,NNE,33,2.3,2.3,86,0.00,,,0.97,WeatherDisplay:10.37,2013-08-31 22:40:00,
2013-08-31 18:45:00,73.4,69.3,29.86,NNE,20,2.3,2.3,87,0.00,,,0.97,WeatherDisplay:10.37,2013-08-31 22:45:00,
2013-08-31 18:50:00,73.5,69.4,29.86,NNE,21,0.0,1.0,87,0.00,,,0.97,WeatherDisplay:10.37,2013-08-31 22:50:00,
2013-08-31 18:55:00,73.3,69.2,29.86,North,350,0.0,0.0,87,0.00,,,0.97,WeatherDisplay:10.37,2013-08-31 22:55:00,
2013-08-31 19:00:00,73.4,69.3,29.86,North,350,0.0,0.0,87,0.00,,,0.97,WeatherDisplay:10.37,2013-08-31 23:00:00,
2013-08-31 19:05:00,73.3,69.2,29.86,North,350,0.0,0.0,87,0.00,CLR,,0.97,WeatherDisplay:10.37,2013-08-31 23:05:00,
2013-08-31 19:10:00,73.3,69.5,29.87,North,350,0.0,0.0,88,0.00,CLR,,0.97,WeatherDisplay:10.37,2013-08-31 23:10:00,
2013-08-31 19:15:00,72.8,69.0,29.87,North,350,0.0,0.0,88,0.00,CLR,,0.97,WeatherDisplay:10.37,2013-08-31 23:15:00,
2013-08-31 19:20:00,72.3,68.9,29.87,North,349,0.0,1.0,89,0.00,CLR,,0.97,WeatherDisplay:10.37,2013-08-31 23:20:00,
2013-08-31 19:25:00,71.9,68.8,29.88,NNW,340,0.0,0.0,90,0.00,CLR,,0.97,WeatherDisplay:10.37,2013-08-31 23:25:00,
2013-08-31 19:30:00,71.6,68.5,29.88,NNW,340,0.0,0.0,90,0.00,CLR,,0.97,WeatherDisplay:10.37,2013-08-31 23:30:00,
2013-08-31 19:35:00,71.3,68.5,29.88,NNW,340,0.0,0.0,91,0.00,CLR,,0.97,WeatherDisplay:10.37,2013-08-31 23:35:00,
2013-08-31 19:40:00,71.0,68.5,29.88,NNW,340,0.0,0.0,92,0.00,CLR,,0.97,WeatherDisplay:10.37,2013-08-31 23:40:00,
2013-08-31 19:45:00,70.6,68.2,29.88,NNW,340,0.0,0.0,92,0.00,CLR,,0.97,WeatherDisplay:10.37,2013-08-31 23:45:00,
2013-08-31 19:50:00,70.4,68.3,29.88,NNW,340,0.0,0.0,93,0.00,CLR,,0.97,WeatherDisplay:10.37,2013-08-31 23:50:00,
2013-08-31 19:55:00,70.1,68.3,29.88,NNW,340,0.0,0.0,94,0.00,CLR,,0.97,WeatherDisplay:10.37,2013-08-31 23:55:00,
2013-08-31 20:00:00,69.9,68.1,29.88,NNW,340,0.0,0.0,94,0.00,,,0.97,WeatherDisplay:10.37,2013-09-01 00:00:00,
2013-08-31 20:05:00,69.7,67.9,29.88,NNW,340,0.0,0.0,94,0.00,,,0.97,WeatherDisplay:10.37,2013-09-01 00:05:00,
2013-08-31 20:10:00,69.5,68.0,29.88,NNW,340,0.0,0.0,95,0.00,,,0.97,WeatherDisplay:10.37,2013-09-01 00:10:00,
2013-08-31 20:15:00,69.4,67.9,29.89,NNW,340,0.0,0.0,95,0.00,,,0.97,WeatherDisplay:10.37,2013-09-01 00:15:00,
2013-08-31 20:20:00,69.2,67.7,29.89,NNW,340,0.0,0.0,95,0.00,,,0.97,WeatherDisplay:10.37,2013-09-01 00:20:00,
2013-08-31 20:25:00,69.2,68.0,29.89,NNW,340,0.0,0.0,96,0.00,,,0.97,WeatherDisplay:10.37,2013-09-01 00:25:00,
2013-08-31 20:30:00,69.0,67.8,29.89,NNW,340,0.0,0.0,96,0.00,,,0.97,WeatherDisplay:10.37,2013-09-01 00:30:00,
2013-08-31 20:35:00,69.0,67.8,29.89,NNW,340,0.0,0.0,96,0.00,,,0.97,WeatherDisplay:10.37,2013-09-01 00:35:00,
2013-08-31 20:40:00,68.9,67.7,29.88,NNW,340,0.0,0.0,96,0.00,,,0.97,WeatherDisplay:10.37,2013-09-01 00:40:00,
2013-08-31 20:45:00,68.8,67.6,29.89,NNW,340,0.0,0.0,96,0.00,,,0.97,WeatherDisplay:10.37,2013-09-01 00:45:00,
2013-08-31 20:50:00,68.7,67.5,29.89,NNW,340,0.0,0.0,96,0.00,,,0.97,WeatherDisplay:10.37,2013-09-01 00:50:00,
2013-08-31 20:55:00,68.6,67.4,29.89,NNW,340,0.0,0.0,96,0.00,,,0.97,WeatherDisplay:10.37,2013-09-01 00:55:00,
2013-08-31 21:00:00,68.6,67.7,29.89,NNW,340,0.0,0.0,97,0.00,,,0.97,WeatherDisplay:10.37,2013-09-01 01:00:00,
2013-08-31 21:05:00,68.4,67.2,29.89,NNW,340,0.0,0.0,96,0.00,,,0.97,WeatherDisplay:10.37,2013-09-01 01:05:00,
2013-08-31 21:10:00,68.3,67.5,29.90,NNW,340,0.0,0.0,97,0.00,,,0.97,WeatherDisplay:10.37,2013-09-01 01:10:00,
2013-08-31 21:15:00,68.3,67.4,29.90,NNW,340,0.0,0.0,97,0.00,,,0.97,WeatherDisplay:10.37,2013-09-01 01:15:00,
2013-08-31 21:20:00,68.2,67.3,29.89,NNW,340,0.0,0.0,97,0.00,,,0.97,WeatherDisplay:10.37,2013-09-01 01:20:00,
2013-08-31 21:25:00,68.1,67.2,29.89,NNW,340,0.0,0.0,97,0.00,,,0.97,WeatherDisplay:10.37,2013-09-01 01:25:00,
2013-08-31 21:30:00,68.1,67.2,29.89,NNW,340,0.0,0.0,97,0.00,,,0.97,WeatherDisplay:10.37,2013-09-01 01:30:00,
2013-08-31 21:35:00,68.0,67.1,29.89,NNW,340,0.0,0.0,97,0.00,,,0.97,WeatherDisplay:10.37,2013-09-01 01:35:00,
2013-08-31 21:40:00,68.0,67.1,29.89,NNW,340,0.0,0.0,97,0.00,,,0.97,WeatherDisplay:10.37,2013-09-01 01:40:00,
2013-08-31 21:45:00,67.7,66.8,29.89,NNW,340,0.0,0.0,97,0.00,,,0.97,WeatherDisplay:10.37,2013-09-01 01:45:00,
2013-08-31 21:50:00,67.7,66.8,29.89,NNW,340,0.0,0.0,97,0.00,,,0.97,WeatherDisplay:10.37,2013-09-01 01:50:00,
2013-08-31 21:55:00,67.7,66.8,29.90,NNW,340,0.0,0.0,97,0.00,,,0.97,WeatherDisplay:10.37,2013-09-01 01:55:00,
2013-08-31 22:00:00,67.6,66.7,29.90,NNW,340,0.0,0.0,97,0.00,,,0.97,WeatherDisplay:10.37,2013-09-01 02:00:00,
2013-08-31 22:05:00,67.5,66.9,29.90,NNW,340,0.0,0.0,98,0.00,,,0.97,WeatherDisplay:10.37,2013-09-01 02:05:00,
2013-08-31 22:10:00,67.5,66.9,29.90,NNW,340,0.0,0.0,98,0.00,,,0.97,WeatherDisplay:10.37,2013-09-01 02:10:00,
2013-08-31 22:15:00,67.3,66.4,29.90,NNW,340,0.0,0.0,97,0.00,,,0.97,WeatherDisplay:10.37,2013-09-01 02:15:00,
2013-08-31 22:20:00,67.3,66.7,29.90,NNW,340,0.0,0.0,98,0.00,,,0.97,WeatherDisplay:10.37,2013-09-01 02:20:00,
2013-08-31 22:25:00,67.2,66.6,29.89,NNW,340,0.0,0.0,98,0.00,,,0.97,WeatherDisplay:10.37,2013-09-01 02:25:00,
2013-08-31 22:30:00,67.1,66.5,29.89,NNW,340,0.0,0.0,98,0.00,,,0.97,WeatherDisplay:10.37,2013-09-01 02:30:00,
2013-08-31 22:35:00,67.0,66.5,29.88,NNW,340,0.0,0.0,98,0.00,,,0.97,WeatherDisplay:10.37,2013-09-01 02:35:00,
2013-08-31 22:40:00,67.0,66.4,29.88,NNW,340,0.0,0.0,98,0.00,,,0.97,WeatherDisplay:10.37,2013-09-01 02:40:00,
2013-08-31 22:45:00,66.9,66.3,29.88,NNW,340,0.0,0.0,98,0.00,,,0.97,WeatherDisplay:10.37,2013-09-01 02:45:00,
2013-08-31 22:50:00,66.8,66.2,29.88,NNW,340,0.0,0.0,98,0.00,,,0.97,WeatherDisplay:10.37,2013-09-01 02:50:00,
2013-08-31 22:55:00,66.8,66.2,29.88,NNW,340,0.0,0.0,98,0.00,,,0.97,WeatherDisplay:10.37,2013-09-01 02:55:00,
2013-08-31 23:00:00,66.6,66.0,29.88,NNW,340,0.0,0.0,98,0.00,,,0.97,WeatherDisplay:10.37,2013-09-01 03:00:00,
2013-08-31 23:05:00,66.4,65.8,29.88,NNW,340,0.0,0.0,98,0.00,,,0.97,WeatherDisplay:10.37,2013-09-01 03:05:00,
2013-08-31 23:10:00,66.2,65.6,29.88,NNW,340,0.0,0.0,98,0.00,,,0.97,WeatherDisplay:10.37,2013-09-01 03:10:00,
2013-08-31 23:15:00,66.3,65.7,29.88,NNW,340,0.0,0.0,98,0.00,,,0.97,WeatherDisplay:10.37,2013-09-01 03:15:00,
2013-08-31 23:20:00,66.3,65.7,29.88,NNW,340,0.0,0.0,98,0.00,,,0.97,WeatherDisplay:10.37,2013-09-01 03:20:00,
2013-08-31 23:25:00,66.2,65.6,29.88,NNW,340,0.0,0.0,98,0.00,,,0.97,WeatherDisplay:10.37,2013-09-01 03:25:00,
2013-08-31 23:30:00,66.2,65.6,29.88,NNW,340,0.0,0.0,98,0.00,,,0.97,WeatherDisplay:10.37,2013-09-01 03:30:00,
2013-08-31 23:35:00,66.2,65.6,29.89,NNW,340,0.0,0.0,98,0.00,,,0.97,WeatherDisplay:10.37,2013-09-01 03:35:00,
2013-08-31 23:40:00,66.0,65.4,29.88,NNW,340,0.0,0.0,98,0.00,,,0.97,WeatherDisplay:10.37,2013-09-01 03:40:00,
2013-08-31 23:45:00,65.9,65.3,29.88,NNW,340,0.0,0.0,98,0.00,,,0.97,WeatherDisplay:10.37,2013-09-01 03:45:00,
2013-08-31 23:50:00,65.7,65.1,29.88,NNW,340,0.0,0.0,98,0.00,,,0.97,WeatherDisplay:10.37,2013-09-01 03:50:00,
2013-08-31 23:55:00,65.5,64.9,29.88,NNW,340,0.0,0.0,98,0.00,,,0.97,WeatherDisplay:10.37,2013-09-01 03:55:00,